Notices

What's New in latest Release from April 7th, 2021:

- Updated Glossary, including Speed of Maximum Gust, and Total Hourly Precipitation

- Updated national and regional climate services offices contacts and prices information

- Addition of station inventory lists for 1981-2010, 1971-2000, and 1961-1990 Normals.

If you haven't already, please take our survey and provide feedback about our website: https://eccc.sondage-survey.ca/f/LanguageSelection.aspx?s=442ca660-fcf1-47c0-95a9-59707d6fd709

Hourly Data Report for September 04, 2018

TORONTO CITY
ONTARIO
Current Station Operator: ECCC - MSC

43°40'00.000" N
79°24'00.000" W
112.50 m
6158355
71508
XTO

Download Data

Hourly Data (September 2018)
Hourly Data Report for September 4, 2018
TIME
LST
Temp Definition
°C
Dew Point Definition
°C
Rel Hum Definition
%
Precip. Amount Definition
mm

Wind Dir Definition
10's deg

Wind Spd Definition
km/h
Visibility Definition
km
Stn Press Definition
kPa
Hmdx Definition


Wind Chill Definition


Weather Definition


00:00 23.6 18.5 73 0.0 LegendMM LegendMM   101.12 30   LegendNANA
01:00 22.8 18.5 77 0.0 LegendMM LegendMM   101.10 29   LegendNANA
02:00 22.4 18.4 78 0.0 LegendMM LegendMM   101.12 29   LegendNANA
03:00 21.9 18.2 80 0.0 LegendMM LegendMM   101.11 28   LegendNANA
04:00 20.9 17.8 82 0.0 LegendMM LegendMM   101.13 27   LegendNANA
05:00 21.5 17.7 79 0.0 LegendMM LegendMM   101.14 27   LegendNANA
06:00 21.2 18.0 82 0.0 LegendMM LegendMM   101.20 27   LegendNANA
07:00 22.0 17.9 77 0.0 LegendMM LegendMM   101.17 28   LegendNANA
08:00 23.3 16.8 67 0.0 LegendMM LegendMM   101.22 28   LegendNANA
09:00 24.5 15.7 58 0.0 LegendMM LegendMM   101.24 29   LegendNANA
10:00 24.3 16.8 63 0.0 LegendMM LegendMM   101.26 29   LegendNANA
11:00 25.2 17.3 62 0.0 LegendMM LegendMM   101.23 31   LegendNANA
12:00 25.8 17.3 59 0.0 LegendMM LegendMM   101.21 31   LegendNANA
13:00 25.9 17.8 61 0.0 LegendMM LegendMM   101.13 32   LegendNANA
14:00 27.5 18.2 57 0.0 LegendMM LegendMM   101.05 34   LegendNANA
15:00 27.7 19.2 60 0.0 LegendMM LegendMM   100.97 35   LegendNANA
16:00 26.5 19.6 66 0.0 LegendMM LegendMM   100.95 34   LegendNANA
17:00 25.7 19.5 69 0.0 LegendMM LegendMM   100.92 33   LegendNANA
18:00 24.3 20.0 77 0.0 LegendMM LegendMM   100.86 32   LegendNANA
19:00 23.9 20.6 82 0.0 LegendMM LegendMM   100.87 32   LegendNANA
20:00 24.0 20.7 82 0.0 LegendMM LegendMM   100.91 32   LegendNANA
21:00 24.1 20.4 80 0.0 LegendMM LegendMM   100.91 32   LegendNANA
22:00 24.0 20.4 80 0.0 LegendMM LegendMM   100.89 32   LegendNANA
23:00 23.3 20.4 84 0.0 LegendMM LegendMM   100.87 31   LegendNANA

Notes on Data Quality.

Legend

  • E = Estimated
  • M = Missing
  • NA = Not Available*
  • [empty] = Indicates an unobserved value
Date modified: